Volver al catálogo

STARLINK-36631

ActivoComunicacionesSSO
NORAD 67602·PAYLOAD·🇺🇸 United States

Lanzado Jan 29, 2026 desde Vandenberg Space Force Base

Loading…

Próximos Pases (próximas 24 horas)

TLE

ActualizadoSource: CelesTrak SupGP

Época: Sep 15, 2026, 04:04 UTC

1 67602C 26018P   26258.16993056  .00000663  00000+0  20574-4 0  2584
2 67602  97.2845 321.7632 0000851  80.6796  47.9678 15.33443594    15

Sigue STARLINK-36631 en tiempo real con AllMySat

Download on the App Store